EN

Hourly Weather Recife

Today, 4 August, Wednesday

Time Temperature Precipitation Wind Pressure Humidity
00:00 +22°C° 0.6 mm 4 mps 761 mmHg 94%
01:00 +22°C° 0.6 mm 4 mps 761 mmHg 94%
02:00 +22°C° 0.5 mm 4 mps 761 mmHg 94%
03:00 +22°C° 0.5 mm 4 mps 761 mmHg 94%
04:00 +22°C° 0.5 mm 4 mps 760 mmHg 94%
05:00 +22°C° 0.6 mm 4 mps 761 mmHg 94%
06:00 +22°C° 0.6 mm 4 mps 761 mmHg 93%
07:00 +22°C° 0.6 mm 4 mps 761 mmHg 93%
08:00 +23°C° 0.8 mm 4 mps 762 mmHg 90%
09:00 +25°C° 0.8 mm 4 mps 762 mmHg 88%
10:00 +25°C° 0.8 mm 4 mps 762 mmHg 85%
11:00 +26°C° 0.8 mm 4 mps 762 mmHg 82%
12:00 +27°C° 0.8 mm 4 mps 762 mmHg 79%
13:00 +28°C° 0.8 mm 4 mps 761 mmHg 76%
14:00 +27°C° 0.5 mm 4 mps 761 mmHg 77%
15:00 +27°C° 0.5 mm 4 mps 761 mmHg 78%
16:00 +27°C° 0.5 mm 5 mps 760 mmHg 78%
17:00 +26°C° 0.4 mm 4 mps 761 mmHg 82%
18:00 +25°C° 0.4 mm 4 mps 761 mmHg 86%
19:00 +23°C° 0.4 mm 4 mps 762 mmHg 90%
20:00 +23°C° 0.5 mm 4 mps 762 mmHg 91%
21:00 +23°C° 0.5 mm 4 mps 762 mmHg 92%
22:00 +22°C° 0.5 mm 4 mps 763 mmHg 93%
23:00 +22°C° 0.6 mm 4 mps 762 mmHg 93%

Tomorrow, 5 August, Thursday

Time Temperature Precipitation Wind Pressure Humidity
00:00 +22°C° 0.6 mm 4 mps 762 mmHg 94%
01:00 +22°C° 0.6 mm 4 mps 762 mmHg 94%
02:00 +22°C° 0.9 mm 4 mps 762 mmHg 94%
03:00 +22°C° 0.9 mm 4 mps 762 mmHg 94%
04:00 +22°C° 0.9 mm 4 mps 761 mmHg 94%
05:00 +22°C° 1.1 mm 4 mps 762 mmHg 94%
06:00 +22°C° 1.1 mm 5 mps 762 mmHg 94%
07:00 +22°C° 1.1 mm 5 mps 762 mmHg 94%
08:00 +23°C° 1.2 mm 5 mps 763 mmHg 91%
09:00 +24°C° 1.2 mm 6 mps 763 mmHg 88%
10:00 +26°C° 1.2 mm 6 mps 763 mmHg 85%
11:00 +27°C° 0.9 mm 6 mps 763 mmHg 84%
12:00 +27°C° 0.9 mm 7 mps 763 mmHg 84%
13:00 +27°C° 0.9 mm 7 mps 762 mmHg 83%
14:00 +27°C° 0.8 mm 7 mps 762 mmHg 84%
15:00 +26°C° 0.8 mm 6 mps 762 mmHg 86%
16:00 +26°C° 0.8 mm 6 mps 761 mmHg 87%
17:00 +24°C° 0.8 mm 6 mps 762 mmHg 89%
18:00 +24°C° 0.8 mm 6 mps 762 mmHg 90%
19:00 +23°C° 0.8 mm 6 mps 762 mmHg 91%
20:00 +23°C° 0.8 mm 6 mps 763 mmHg 92%
21:00 +23°C° 0.8 mm 6 mps 763 mmHg 92%
22:00 +23°C° 0.8 mm 5 mps 763 mmHg 92%
23:00 +23°C° 0.3 mm 5 mps 763 mmHg 92%

Day after tomorrow, 6 August, Friday

Time Temperature Precipitation Wind Pressure Humidity
00:00 +23°C° 0.3 mm 5 mps 763 mmHg 92%
01:00 +22°C° 0.3 mm 5 mps 762 mmHg 92%
02:00 +22°C° 0.2 mm 5 mps 762 mmHg 93%
03:00 +22°C° 0.2 mm 5 mps 762 mmHg 93%
04:00 +22°C° 0.2 mm 5 mps 762 mmHg 93%
05:00 +22°C° 0.1 mm 5 mps 762 mmHg 92%
06:00 +22°C° 0.1 mm 5 mps 762 mmHg 92%
07:00 +22°C° 0.1 mm 5 mps 763 mmHg 92%
08:00 +25°C° 0 mm 5 mps 763 mmHg 83%
09:00 +26°C° 0 mm 5 mps 763 mmHg 75%
10:00 +28°C° 0 mm 6 mps 764 mmHg 66%
11:00 +28°C° 0 mm 6 mps 763 mmHg 64%
12:00 +29°C° 0 mm 6 mps 763 mmHg 62%
13:00 +29°C° 0 mm 6 mps 763 mmHg 60%
14:00 +29°C° 0 mm 6 mps 762 mmHg 62%
15:00 +29°C° 0 mm 6 mps 762 mmHg 63%
16:00 +28°C° 0 mm 6 mps 762 mmHg 65%
17:00 +27°C° 0.1 mm 6 mps 762 mmHg 71%
18:00 +26°C° 0.1 mm 6 mps 762 mmHg 78%
19:00 +25°C° 0.1 mm 5 mps 762 mmHg 85%
20:00 +25°C° 0.1 mm 5 mps 763 mmHg 86%
21:00 +23°C° 0.1 mm 5 mps 763 mmHg 88%
22:00 +23°C° 0.1 mm 5 mps 763 mmHg 89%
23:00 +23°C° 0.2 mm 5 mps 763 mmHg 90%

7 August, Saturday

Time Temperature Precipitation Wind Pressure Humidity
00:00 +23°C° 0.2 mm 5 mps 762 mmHg 91%
01:00 +23°C° 0.2 mm 5 mps 762 mmHg 92%
02:00 +23°C° 0.3 mm 5 mps 762 mmHg 92%
03:00 +23°C° 0.3 mm 5 mps 761 mmHg 92%
04:00 +23°C° 0.3 mm 5 mps 761 mmHg 92%
05:00 +23°C° 0.4 mm 5 mps 761 mmHg 92%
06:00 +23°C° 0.4 mm 6 mps 761 mmHg 91%
07:00 +23°C° 0.4 mm 6 mps 762 mmHg 91%
08:00 +24°C° 0.4 mm 6 mps 762 mmHg 88%
09:00 +26°C° 0.4 mm 6 mps 762 mmHg 85%
10:00 +27°C° 0.4 mm 7 mps 763 mmHg 82%
11:00 +27°C° 0.6 mm 7 mps 762 mmHg 81%
12:00 +27°C° 0.6 mm 7 mps 762 mmHg 80%
13:00 +27°C° 0.6 mm 7 mps 762 mmHg 80%
14:00 +27°C° 0.5 mm 7 mps 761 mmHg 80%
15:00 +27°C° 0.5 mm 7 mps 761 mmHg 79%
16:00 +26°C° 0.5 mm 7 mps 761 mmHg 79%
17:00 +26°C° 0.1 mm 7 mps 761 mmHg 79%
18:00 +24°C° 0.1 mm 7 mps 761 mmHg 78%
19:00 +24°C° 0.1 mm 6 mps 762 mmHg 78%
20:00 +24°C° 0 mm 6 mps 762 mmHg 77%
21:00 +24°C° 0 mm 6 mps 762 mmHg 76%
22:00 +24°C° 0 mm 6 mps 763 mmHg 74%
23:00 +24°C° 0 mm 6 mps 763 mmHg 75%

8 August, Sunday

Time Temperature Precipitation Wind Pressure Humidity
00:00 +23°C° 0 mm 6 mps 762 mmHg 75%
01:00 +23°C° 0 mm 6 mps 762 mmHg 75%
02:00 +23°C° 0 mm 5 mps 762 mmHg 76%
03:00 +22°C° 0 mm 5 mps 762 mmHg 77%
04:00 +22°C° 0 mm 5 mps 761 mmHg 78%
05:00 +22°C° 0 mm 5 mps 761 mmHg 77%
06:00 +22°C° 0 mm 5 mps 762 mmHg 77%
07:00 +22°C° 0 mm 5 mps 762 mmHg 76%
08:00 +25°C° 0 mm 5 mps 762 mmHg 71%
09:00 +26°C° 0 mm 6 mps 763 mmHg 66%
10:00 +27°C° 0 mm 6 mps 763 mmHg 61%
11:00 +28°C° 0 mm 6 mps 762 mmHg 59%
12:00 +28°C° 0 mm 6 mps 762 mmHg 57%
13:00 +29°C° 0 mm 6 mps 762 mmHg 54%
14:00 +29°C° 0 mm 6 mps 761 mmHg 56%
15:00 +28°C° 0 mm 6 mps 761 mmHg 58%
16:00 +28°C° 0 mm 6 mps 761 mmHg 60%
17:00 +27°C° 0 mm 6 mps 761 mmHg 65%
18:00 +26°C° 0 mm 5 mps 761 mmHg 70%
19:00 +23°C° 0 mm 5 mps 762 mmHg 75%
20:00 +23°C° 0 mm 5 mps 762 mmHg 76%
21:00 +23°C° 0 mm 4 mps 762 mmHg 78%
22:00 +23°C° 0 mm 4 mps 763 mmHg 79%
23:00 +22°C° 0 mm 4 mps 762 mmHg 80%

9 August, Monday

Time Temperature Precipitation Wind Pressure Humidity
00:00 +22°C° 0 mm 4 mps 762 mmHg 81%
01:00 +22°C° 0 mm 4 mps 762 mmHg 82%
02:00 +22°C° 0 mm 4 mps 762 mmHg 83%
03:00 +22°C° 0 mm 4 mps 761 mmHg 84%
04:00 +21°C° 0 mm 5 mps 761 mmHg 86%
05:00 +21°C° 0 mm 5 mps 761 mmHg 86%
06:00 +21°C° 0 mm 5 mps 762 mmHg 86%
07:00 +21°C° 0 mm 5 mps 762 mmHg 86%
08:00 +23°C° 0 mm 5 mps 762 mmHg 79%
09:00 +26°C° 0 mm 5 mps 762 mmHg 73%
10:00 +28°C° 0 mm 5 mps 763 mmHg 66%
11:00 +28°C° 0 mm 5 mps 762 mmHg 65%
12:00 +29°C° 0 mm 5 mps 762 mmHg 63%
13:00 +29°C° 0 mm 5 mps 762 mmHg 62%
14:00 +29°C° 0 mm 5 mps 761 mmHg 63%
15:00 +28°C° 0 mm 5 mps 761 mmHg 65%
16:00 +28°C° 0 mm 5 mps 761 mmHg 66%
17:00 +27°C° 0.1 mm 5 mps 761 mmHg 72%
18:00 +26°C° 0.1 mm 4 mps 761 mmHg 77%
19:00 +26°C° 0.1 mm 4 mps 762 mmHg 82%
20:00 +25°C° 0.2 mm 4 mps 762 mmHg 84%
21:00 +25°C° 0.2 mm 4 mps 762 mmHg 86%
22:00 +25°C° 0.2 mm 4 mps 762 mmHg 87%
23:00 +25°C° 0.4 mm 4 mps 762 mmHg 88%
Show more

We Need Your Consent

Meteoprog and our Service Providers may store and access personal data such as cookies, device identifiers or other similar technologies on your device and process such data to personalise content and ads, as well as provide social media features and to analyse the traffic.

  • Store and/or access information on your device

    Cookies, device identifiers or other information can be stored or accessed on your device for the purposes indicated above.

  • Personalised ads and content, ad and content measurement, audience insights, and products development

    Ads and content can be personalised based on a profile. More data can be added to better personalise ads and content. Ad and content performance can be measured. Insights about the audience who saw the ads and content can be derived. Such data can be used to develop or improve user’s experience, systems and software.

By clicking ‘I Agree’ you will allow the use of indicated cookies, device identifiers, web beacons or other similar technologies. Your settings can be changed in the browser on your device.

For certain purposes, legitimate interests may be relied on, rather than consent. You can read more about this in our Privacy and Cookie Policy.